Year,Month,Day,Hour,Minute,Value (Times are PST for temperature in C)
2013,07,26,00,00,15.80
2013,07,26,00,01,15.70
2013,07,26,00,02,15.70
2013,07,26,00,03,15.70
2013,07,26,00,04,15.70
2013,07,26,00,05,15.70
2013,07,26,00,06,15.60
2013,07,26,00,07,15.60
2013,07,26,00,08,15.60
2013,07,26,00,09,15.50
2013,07,26,00,10,15.50
2013,07,26,00,11,15.40
2013,07,26,00,12,15.40
2013,07,26,00,13,15.40
2013,07,26,00,14,15.40
2013,07,26,00,15,15.30
2013,07,26,00,16,15.30
2013,07,26,00,17,15.30
2013,07,26,00,18,15.30
2013,07,26,00,19,15.20
2013,07,26,00,20,15.20
2013,07,26,00,21,15.20
2013,07,26,00,22,15.20
2013,07,26,00,23,15.20
2013,07,26,00,24,15.20
2013,07,26,00,25,15.20
2013,07,26,00,26,15.10
2013,07,26,00,27,15.10
2013,07,26,00,28,15.10
2013,07,26,00,29,15.10
2013,07,26,00,30,15.10
2013,07,26,00,31,15.10
2013,07,26,00,32,15.00
2013,07,26,00,33,15.00
2013,07,26,00,34,15.00
2013,07,26,00,35,14.90
2013,07,26,00,36,14.90
2013,07,26,00,37,14.90
2013,07,26,00,38,14.90
2013,07,26,00,39,14.90
2013,07,26,00,40,14.90
2013,07,26,00,41,14.80
2013,07,26,00,42,14.80
2013,07,26,00,43,14.80
2013,07,26,00,44,14.80
2013,07,26,00,45,14.80
2013,07,26,00,46,14.80
2013,07,26,00,47,14.80
2013,07,26,00,48,14.80
2013,07,26,00,49,14.90
2013,07,26,00,50,14.90
2013,07,26,00,51,14.80
2013,07,26,00,52,14.80
2013,07,26,00,53,14.80
2013,07,26,00,54,14.80
2013,07,26,00,55,14.80
2013,07,26,00,56,14.80
2013,07,26,00,57,14.80
2013,07,26,00,58,14.80
2013,07,26,00,59,14.80
2013,07,26,01,00,14.80
2013,07,26,01,01,14.80
2013,07,26,01,02,14.80
2013,07,26,01,03,14.80
2013,07,26,01,04,14.80
2013,07,26,01,05,14.80
2013,07,26,01,06,14.80
2013,07,26,01,07,14.90
2013,07,26,01,08,14.90
2013,07,26,01,09,14.90
2013,07,26,01,10,14.90
2013,07,26,01,11,14.90
2013,07,26,01,12,14.90
2013,07,26,01,13,14.90
2013,07,26,01,14,14.90
2013,07,26,01,15,14.90
2013,07,26,01,16,15.00
2013,07,26,01,17,14.90
2013,07,26,01,18,14.90
2013,07,26,01,19,14.90
2013,07,26,01,20,14.90
2013,07,26,01,21,14.90
2013,07,26,01,22,14.90
2013,07,26,01,23,14.90
2013,07,26,01,24,14.90
2013,07,26,01,25,14.90
2013,07,26,01,26,14.90
2013,07,26,01,27,14.90
2013,07,26,01,28,14.90
2013,07,26,01,29,14.90
2013,07,26,01,30,14.90
2013,07,26,01,31,14.90
2013,07,26,01,32,14.90
2013,07,26,01,33,14.90
2013,07,26,01,34,14.80
2013,07,26,01,35,14.80
2013,07,26,01,36,14.80
2013,07,26,01,37,14.80
2013,07,26,01,38,14.80
2013,07,26,01,39,14.80
2013,07,26,01,40,14.80
2013,07,26,01,41,14.70
2013,07,26,01,42,14.70
2013,07,26,01,43,14.70
2013,07,26,01,44,14.70
2013,07,26,01,45,14.70
2013,07,26,01,46,14.70
2013,07,26,01,47,14.70
2013,07,26,01,48,14.70
2013,07,26,01,49,14.60
2013,07,26,01,50,14.60
2013,07,26,01,51,14.60
2013,07,26,01,52,14.60
2013,07,26,01,53,14.60
2013,07,26,01,54,14.60
2013,07,26,01,55,14.60
2013,07,26,01,56,14.60
2013,07,26,01,57,14.60
2013,07,26,01,58,14.60
2013,07,26,01,59,14.60
2013,07,26,02,00,14.60
2013,07,26,02,01,14.60
2013,07,26,02,02,14.60
2013,07,26,02,03,14.60
2013,07,26,02,04,14.60
2013,07,26,02,05,14.50
2013,07,26,02,06,14.50
2013,07,26,02,07,14.50
2013,07,26,02,08,14.50
2013,07,26,02,09,14.40
2013,07,26,02,10,14.40
2013,07,26,02,11,14.40
2013,07,26,02,12,14.40
2013,07,26,02,13,14.40
2013,07,26,02,14,14.40
2013,07,26,02,15,14.40
2013,07,26,02,16,14.40
2013,07,26,02,17,14.30
2013,07,26,02,18,14.30
2013,07,26,02,19,14.30
2013,07,26,02,20,14.30
2013,07,26,02,21,14.30
2013,07,26,02,22,14.30
2013,07,26,02,23,14.30
2013,07,26,02,24,14.30
2013,07,26,02,25,14.30
2013,07,26,02,26,14.30
2013,07,26,02,27,14.20
2013,07,26,02,28,14.20
2013,07,26,02,29,14.20
2013,07,26,02,30,14.20
2013,07,26,02,31,14.20
2013,07,26,02,32,14.20
2013,07,26,02,33,14.20
2013,07,26,02,34,14.20
2013,07,26,02,35,14.20
2013,07,26,02,36,14.20
2013,07,26,02,37,14.10
2013,07,26,02,38,14.10
2013,07,26,02,39,14.10
2013,07,26,02,40,14.10
2013,07,26,02,41,14.10
2013,07,26,02,42,14.10
2013,07,26,02,43,14.10
2013,07,26,02,44,14.10
2013,07,26,02,45,14.00
2013,07,26,02,46,14.00
2013,07,26,02,47,14.00
2013,07,26,02,48,14.00
2013,07,26,02,49,14.00
2013,07,26,02,50,13.90
2013,07,26,02,51,13.90
2013,07,26,02,52,13.90
2013,07,26,02,53,13.90
2013,07,26,02,54,13.90
2013,07,26,02,55,13.90
2013,07,26,02,56,13.90
2013,07,26,02,57,13.90
2013,07,26,02,58,13.90
2013,07,26,02,59,13.90
2013,07,26,03,00,13.80
2013,07,26,03,01,13.80
2013,07,26,03,02,13.80
2013,07,26,03,03,13.80
2013,07,26,03,04,13.80
2013,07,26,03,05,13.80
2013,07,26,03,06,13.80
2013,07,26,03,07,13.80
2013,07,26,03,08,13.80
2013,07,26,03,09,13.80
2013,07,26,03,10,13.80
2013,07,26,03,11,13.80
2013,07,26,03,12,13.70
2013,07,26,03,13,13.70
2013,07,26,03,14,13.70
2013,07,26,03,15,13.70
2013,07,26,03,16,13.70
2013,07,26,03,17,13.70
2013,07,26,03,18,13.70
2013,07,26,03,19,13.70
2013,07,26,03,20,13.70
2013,07,26,03,21,13.70
2013,07,26,03,22,13.70
2013,07,26,03,23,13.70
2013,07,26,03,24,13.70
2013,07,26,03,25,13.70
2013,07,26,03,26,13.70
2013,07,26,03,27,13.70
2013,07,26,03,28,13.70
2013,07,26,03,29,13.70
2013,07,26,03,30,13.70
2013,07,26,03,31,13.70
2013,07,26,03,32,13.70
2013,07,26,03,33,13.70
2013,07,26,03,34,13.70
2013,07,26,03,35,13.70
2013,07,26,03,36,13.70
2013,07,26,03,37,13.70
2013,07,26,03,38,13.70
2013,07,26,03,39,13.70
2013,07,26,03,40,13.70
2013,07,26,03,41,13.70
2013,07,26,03,42,13.70
2013,07,26,03,43,13.70
2013,07,26,03,44,13.70
2013,07,26,03,45,13.70
2013,07,26,03,46,13.70
2013,07,26,03,47,13.70
2013,07,26,03,48,13.70
2013,07,26,03,49,13.70
2013,07,26,03,50,13.70
2013,07,26,03,51,13.70
2013,07,26,03,52,13.70
2013,07,26,03,53,13.70
2013,07,26,03,54,13.60
2013,07,26,03,55,13.60
2013,07,26,03,56,13.60
2013,07,26,03,57,13.60
2013,07,26,03,58,13.60
2013,07,26,03,59,13.60
2013,07,26,04,00,13.60
2013,07,26,04,01,13.60
2013,07,26,04,02,13.60
2013,07,26,04,03,13.60
2013,07,26,04,04,13.60
2013,07,26,04,05,13.60
2013,07,26,04,06,13.50
2013,07,26,04,07,13.50
2013,07,26,04,08,13.50
2013,07,26,04,09,13.50
2013,07,26,04,10,13.50
2013,07,26,04,11,13.40
2013,07,26,04,12,13.40
2013,07,26,04,13,13.40
2013,07,26,04,14,13.40
2013,07,26,04,15,13.40
2013,07,26,04,16,13.40
2013,07,26,04,17,13.40
2013,07,26,04,18,13.40
2013,07,26,04,19,13.40
2013,07,26,04,20,13.40
2013,07,26,04,21,13.40
2013,07,26,04,22,13.40
2013,07,26,04,23,13.40
2013,07,26,04,24,13.30
2013,07,26,04,25,13.30
2013,07,26,04,26,13.30
2013,07,26,04,27,13.30
2013,07,26,04,28,13.30
2013,07,26,04,29,13.30
2013,07,26,04,30,13.20
2013,07,26,04,31,13.20
2013,07,26,04,32,13.20
2013,07,26,04,33,13.20
2013,07,26,04,34,13.20
2013,07,26,04,35,13.20
2013,07,26,04,36,13.20
2013,07,26,04,37,13.10
2013,07,26,04,38,13.10
2013,07,26,04,39,13.10
2013,07,26,04,40,13.10
2013,07,26,04,41,13.10
2013,07,26,04,42,13.10
2013,07,26,04,43,13.10
2013,07,26,04,44,13.10
2013,07,26,04,45,13.10
2013,07,26,04,46,13.10
2013,07,26,04,47,13.10
2013,07,26,04,48,13.20
2013,07,26,04,49,13.20
2013,07,26,04,50,13.20
2013,07,26,04,51,13.20
2013,07,26,04,52,13.10
2013,07,26,04,53,13.10
2013,07,26,04,54,13.10
2013,07,26,04,55,13.10
2013,07,26,04,56,13.10
2013,07,26,04,57,13.10
2013,07,26,04,58,13.10
2013,07,26,04,59,13.10
2013,07,26,05,00,13.10
2013,07,26,05,01,13.10
2013,07,26,05,02,13.10
2013,07,26,05,03,13.10
2013,07,26,05,04,13.10
2013,07,26,05,05,13.10
2013,07,26,05,06,13.10
2013,07,26,05,07,13.10
2013,07,26,05,08,13.10
2013,07,26,05,09,13.10
2013,07,26,05,10,13.10
2013,07,26,05,11,13.10
2013,07,26,05,12,13.10
2013,07,26,05,13,13.00
2013,07,26,05,14,13.00
2013,07,26,05,15,13.00
2013,07,26,05,16,13.00
2013,07,26,05,17,13.00
2013,07,26,05,18,13.00
2013,07,26,05,19,13.00
2013,07,26,05,20,13.10
2013,07,26,05,21,13.10
2013,07,26,05,22,13.10
2013,07,26,05,23,13.10
2013,07,26,05,24,13.10
2013,07,26,05,25,13.10
2013,07,26,05,26,13.10
2013,07,26,05,27,13.00
2013,07,26,05,28,13.00
2013,07,26,05,29,13.00
2013,07,26,05,30,13.00
2013,07,26,05,31,13.00
2013,07,26,05,32,12.90
2013,07,26,05,33,12.90
2013,07,26,05,34,12.90
2013,07,26,05,35,12.90
2013,07,26,05,36,12.90
2013,07,26,05,37,12.80
2013,07,26,05,38,12.80
2013,07,26,05,39,12.80
2013,07,26,05,40,12.80
2013,07,26,05,41,12.80
2013,07,26,05,42,12.80
2013,07,26,05,43,12.70
2013,07,26,05,44,12.70
2013,07,26,05,45,12.70
2013,07,26,05,46,12.70
2013,07,26,05,47,12.70
2013,07,26,05,48,12.70
2013,07,26,05,49,12.70
2013,07,26,05,50,12.70
2013,07,26,05,51,12.60
2013,07,26,05,52,12.60
2013,07,26,05,53,12.60
2013,07,26,05,54,12.60
2013,07,26,05,55,12.60
2013,07,26,05,56,12.60
2013,07,26,05,57,12.50
2013,07,26,05,58,12.50
2013,07,26,05,59,12.50
2013,07,26,06,00,12.50
2013,07,26,06,01,12.40
2013,07,26,06,02,12.40
2013,07,26,06,03,12.40
2013,07,26,06,04,12.40
2013,07,26,06,05,12.40
2013,07,26,06,06,12.40
2013,07,26,06,07,12.40
2013,07,26,06,08,12.40
2013,07,26,06,09,12.40
2013,07,26,06,10,12.40
2013,07,26,06,11,12.40
2013,07,26,06,12,12.30
2013,07,26,06,13,12.30
2013,07,26,06,14,12.30
2013,07,26,06,15,12.30
2013,07,26,06,16,12.30
2013,07,26,06,17,12.30
2013,07,26,06,18,12.30
2013,07,26,06,19,12.30
2013,07,26,06,20,12.30
2013,07,26,06,21,12.20
2013,07,26,06,22,12.20
2013,07,26,06,23,12.20
2013,07,26,06,24,12.20
2013,07,26,06,25,12.20
2013,07,26,06,26,12.20
2013,07,26,06,27,12.20
2013,07,26,06,28,12.20
2013,07,26,06,29,12.20
2013,07,26,06,30,12.20
2013,07,26,06,31,12.20
2013,07,26,06,32,12.20
2013,07,26,06,33,12.30
2013,07,26,06,34,12.30
2013,07,26,06,35,12.30
2013,07,26,06,36,12.30
2013,07,26,06,37,12.30
2013,07,26,06,38,12.30
2013,07,26,06,39,12.30
2013,07,26,06,40,12.30
2013,07,26,06,41,12.30
2013,07,26,06,42,12.30
2013,07,26,06,43,12.30
2013,07,26,06,44,12.30
2013,07,26,06,45,12.40
2013,07,26,06,46,12.40
2013,07,26,06,47,12.40
2013,07,26,06,48,12.40
2013,07,26,06,49,12.50
2013,07,26,06,50,12.50
2013,07,26,06,51,12.50
2013,07,26,06,52,12.60
2013,07,26,06,53,12.60
2013,07,26,06,54,12.60
2013,07,26,06,55,12.70
2013,07,26,06,56,12.70
2013,07,26,06,57,12.70
2013,07,26,06,58,12.70
2013,07,26,06,59,12.80
2013,07,26,07,00,12.80
2013,07,26,07,01,12.80
2013,07,26,07,02,12.90
2013,07,26,07,03,12.90
2013,07,26,07,04,13.00
2013,07,26,07,05,13.00
2013,07,26,07,06,13.10
2013,07,26,07,07,13.10
2013,07,26,07,08,13.10
2013,07,26,07,09,13.20
2013,07,26,07,10,13.20
2013,07,26,07,11,13.20
2013,07,26,07,12,13.30
2013,07,26,07,13,13.30
2013,07,26,07,14,13.30
2013,07,26,07,15,13.40
2013,07,26,07,16,13.40
2013,07,26,07,17,13.50
2013,07,26,07,18,13.50
2013,07,26,07,19,13.60
2013,07,26,07,20,13.60
2013,07,26,07,21,13.60
2013,07,26,07,22,13.70
2013,07,26,07,23,13.70
2013,07,26,07,24,13.70
2013,07,26,07,25,13.70
2013,07,26,07,26,13.80
2013,07,26,07,27,13.90
2013,07,26,07,28,13.90
2013,07,26,07,29,14.00
2013,07,26,07,30,14.20
2013,07,26,07,31,14.30
2013,07,26,07,32,14.30
2013,07,26,07,33,14.40
2013,07,26,07,34,14.50
2013,07,26,07,35,14.60
2013,07,26,07,36,14.70
2013,07,26,07,37,14.70
2013,07,26,07,38,14.80
2013,07,26,07,39,14.90
2013,07,26,07,40,15.00
2013,07,26,07,41,15.00
2013,07,26,07,42,15.10
2013,07,26,07,43,15.10
2013,07,26,07,44,15.10
2013,07,26,07,45,15.10
2013,07,26,07,46,15.10
2013,07,26,07,47,15.10
2013,07,26,07,48,15.20
2013,07,26,07,49,15.20
2013,07,26,07,50,15.30
2013,07,26,07,51,15.30
2013,07,26,07,52,15.40
2013,07,26,07,53,15.40
2013,07,26,07,54,15.50
2013,07,26,07,55,15.50
2013,07,26,07,56,15.60
2013,07,26,07,57,15.60
2013,07,26,07,58,15.60
2013,07,26,07,59,15.70
2013,07,26,08,00,15.80
2013,07,26,08,01,15.90
2013,07,26,08,02,15.90
2013,07,26,08,03,16.00
2013,07,26,08,04,16.00
2013,07,26,08,05,16.10
2013,07,26,08,06,16.10
2013,07,26,08,07,16.20
2013,07,26,08,08,16.20
2013,07,26,08,09,16.20
2013,07,26,08,10,16.20
2013,07,26,08,11,16.30
2013,07,26,08,12,16.30
2013,07,26,08,13,16.40
2013,07,26,08,14,16.50
2013,07,26,08,15,16.50
2013,07,26,08,16,16.50
2013,07,26,08,17,16.60
2013,07,26,08,18,16.60
2013,07,26,08,19,16.70
2013,07,26,08,20,16.70
2013,07,26,08,21,16.70
2013,07,26,08,22,16.70
2013,07,26,08,23,16.80
2013,07,26,08,24,16.80
2013,07,26,08,25,16.90
2013,07,26,08,26,16.90
2013,07,26,08,27,16.90
2013,07,26,08,28,17.00
2013,07,26,08,29,17.00
2013,07,26,08,30,17.10
2013,07,26,08,31,17.10
2013,07,26,08,32,17.20
2013,07,26,08,33,17.20
2013,07,26,08,34,17.20
2013,07,26,08,35,17.30
2013,07,26,08,36,17.30
2013,07,26,08,37,17.30
2013,07,26,08,38,17.40
2013,07,26,08,39,17.40
2013,07,26,08,40,17.40
2013,07,26,08,41,17.50
2013,07,26,08,42,17.50
2013,07,26,08,43,17.60
2013,07,26,08,44,17.70
2013,07,26,08,45,17.80
2013,07,26,08,46,17.80
2013,07,26,08,47,17.90
2013,07,26,08,48,17.90
2013,07,26,08,49,18.00
2013,07,26,08,50,18.10
2013,07,26,08,51,18.20
2013,07,26,08,52,18.20
2013,07,26,08,53,18.20
2013,07,26,08,54,18.20
2013,07,26,08,55,18.30
2013,07,26,08,56,18.30
2013,07,26,08,57,18.30
2013,07,26,08,58,18.30
2013,07,26,08,59,18.30
2013,07,26,09,00,18.40
2013,07,26,09,01,18.40
2013,07,26,09,02,18.50
2013,07,26,09,03,18.60
2013,07,26,09,04,18.60
2013,07,26,09,05,18.70
2013,07,26,09,06,18.80
2013,07,26,09,07,18.80
2013,07,26,09,08,18.90
2013,07,26,09,09,19.00
2013,07,26,09,10,19.10
2013,07,26,09,11,19.20
2013,07,26,09,12,19.20
2013,07,26,09,13,19.20
2013,07,26,09,14,19.30
2013,07,26,09,15,19.30
2013,07,26,09,16,19.40
2013,07,26,09,17,19.40
2013,07,26,09,18,19.40
2013,07,26,09,19,19.50
2013,07,26,09,20,19.50
2013,07,26,09,21,19.50
2013,07,26,09,22,19.50
2013,07,26,09,23,19.50
2013,07,26,09,24,19.50
2013,07,26,09,25,19.60
2013,07,26,09,26,19.60
2013,07,26,09,27,19.60
2013,07,26,09,28,19.60
2013,07,26,09,29,19.70
2013,07,26,09,30,19.70
2013,07,26,09,31,19.70
2013,07,26,09,32,19.70
2013,07,26,09,33,19.70
2013,07,26,09,34,19.70
2013,07,26,09,35,19.70
2013,07,26,09,36,19.70
2013,07,26,09,37,19.70
2013,07,26,09,38,19.70
2013,07,26,09,39,19.70
2013,07,26,09,40,19.70
2013,07,26,09,41,19.70
2013,07,26,09,42,19.70
2013,07,26,09,43,19.80
2013,07,26,09,44,19.80
2013,07,26,09,45,19.90
2013,07,26,09,46,19.90
2013,07,26,09,47,20.00
2013,07,26,09,48,20.10
2013,07,26,09,49,20.10
2013,07,26,09,50,20.20
2013,07,26,09,51,20.30
2013,07,26,09,52,20.40
2013,07,26,09,53,20.40
2013,07,26,09,54,20.40
2013,07,26,09,55,20.40
2013,07,26,09,56,20.50
2013,07,26,09,57,20.50
2013,07,26,09,58,20.60
2013,07,26,09,59,20.60
2013,07,26,10,00,20.70
2013,07,26,10,01,20.70
2013,07,26,10,02,20.70
2013,07,26,10,03,20.70
2013,07,26,10,04,20.70
2013,07,26,10,05,20.60
2013,07,26,10,06,20.60
2013,07,26,10,07,20.50
2013,07,26,10,08,20.40
2013,07,26,10,09,20.40
2013,07,26,10,10,20.50
2013,07,26,10,11,20.60
2013,07,26,10,12,20.60
2013,07,26,10,13,20.60
2013,07,26,10,14,20.50
2013,07,26,10,15,20.60
2013,07,26,10,16,20.60
2013,07,26,10,17,20.60
2013,07,26,10,18,20.70
2013,07,26,10,19,20.70
2013,07,26,10,20,20.80
2013,07,26,10,21,20.80
2013,07,26,10,22,20.80
2013,07,26,10,23,20.80
2013,07,26,10,24,20.80
2013,07,26,10,25,20.80
2013,07,26,10,26,20.80
2013,07,26,10,27,20.80
2013,07,26,10,28,20.80
2013,07,26,10,29,20.80
2013,07,26,10,30,20.80
2013,07,26,10,31,20.70
2013,07,26,10,32,20.60
2013,07,26,10,33,20.60
2013,07,26,10,34,20.50
2013,07,26,10,35,20.50
2013,07,26,10,36,20.50
2013,07,26,10,37,20.60
2013,07,26,10,38,20.50
2013,07,26,10,39,20.50
2013,07,26,10,40,20.40
2013,07,26,10,41,20.50
2013,07,26,10,42,20.50
2013,07,26,10,43,20.60
2013,07,26,10,44,20.60
2013,07,26,10,45,20.70
2013,07,26,10,46,20.70
2013,07,26,10,47,20.70
2013,07,26,10,48,20.60
2013,07,26,10,49,20.60
2013,07,26,10,50,20.50
2013,07,26,10,51,20.40
2013,07,26,10,52,20.30
2013,07,26,10,53,20.30
2013,07,26,10,54,20.30
2013,07,26,10,55,20.20
2013,07,26,10,56,20.20
2013,07,26,10,57,20.20
2013,07,26,10,58,20.20
2013,07,26,10,59,20.20
2013,07,26,11,00,20.20
2013,07,26,11,01,20.20
2013,07,26,11,02,20.20
2013,07,26,11,03,20.20
2013,07,26,11,04,20.30
2013,07,26,11,05,20.30
2013,07,26,11,06,20.40
2013,07,26,11,07,20.50
2013,07,26,11,08,20.60
2013,07,26,11,09,20.70
2013,07,26,11,10,20.70
2013,07,26,11,11,20.70
2013,07,26,11,12,20.70
2013,07,26,11,13,20.70
2013,07,26,11,14,20.70
2013,07,26,11,15,20.70
2013,07,26,11,16,20.70
2013,07,26,11,17,20.70
2013,07,26,11,18,20.80
2013,07,26,11,19,20.80
2013,07,26,11,20,20.90
2013,07,26,11,21,20.90
2013,07,26,11,22,20.90
2013,07,26,11,23,20.90
2013,07,26,11,24,20.90
2013,07,26,11,25,20.90
2013,07,26,11,26,21.00
2013,07,26,11,27,21.00
2013,07,26,11,28,21.10
2013,07,26,11,29,21.10
2013,07,26,11,30,21.10
2013,07,26,11,31,21.20
2013,07,26,11,32,21.20
2013,07,26,11,33,21.40
2013,07,26,11,34,21.50
2013,07,26,11,35,21.60
2013,07,26,11,36,21.60
2013,07,26,11,37,21.70
2013,07,26,11,38,21.70
2013,07,26,11,39,21.70
2013,07,26,11,40,21.70
2013,07,26,11,41,21.60
2013,07,26,11,42,21.60
2013,07,26,11,43,21.50
2013,07,26,11,44,21.40
2013,07,26,11,45,21.40
2013,07,26,11,46,21.30
2013,07,26,11,47,21.30
2013,07,26,11,48,21.30
2013,07,26,11,49,21.30
2013,07,26,11,50,21.30
2013,07,26,11,51,21.30
2013,07,26,11,52,21.20
2013,07,26,11,53,21.10
2013,07,26,11,54,21.00
2013,07,26,11,55,21.00
2013,07,26,11,56,20.90
2013,07,26,11,57,20.90
2013,07,26,11,58,21.00
2013,07,26,11,59,21.10
2013,07,26,12,00,21.10
2013,07,26,12,01,21.10
2013,07,26,12,02,21.10
2013,07,26,12,03,21.10
2013,07,26,12,04,21.10
2013,07,26,12,05,21.10
2013,07,26,12,06,21.10
2013,07,26,12,07,21.10
2013,07,26,12,08,21.10
2013,07,26,12,09,21.10
2013,07,26,12,10,21.00
2013,07,26,12,11,21.00
2013,07,26,12,12,21.00
2013,07,26,12,13,21.00
2013,07,26,12,14,21.10
2013,07,26,12,15,21.20
2013,07,26,12,16,21.30
2013,07,26,12,17,21.50
2013,07,26,12,18,21.60
2013,07,26,12,19,21.70
2013,07,26,12,20,21.70
2013,07,26,12,21,21.80
2013,07,26,12,22,21.80
2013,07,26,12,23,21.80
2013,07,26,12,24,21.80
2013,07,26,12,25,21.80
2013,07,26,12,26,21.80
2013,07,26,12,27,21.70
2013,07,26,12,28,21.70
2013,07,26,12,29,21.70
2013,07,26,12,30,21.60
2013,07,26,12,31,21.50
2013,07,26,12,32,21.40
2013,07,26,12,33,21.40
2013,07,26,12,34,21.30
2013,07,26,12,35,21.40
2013,07,26,12,36,21.50
2013,07,26,12,37,21.60
2013,07,26,12,38,21.70
2013,07,26,12,39,21.80
2013,07,26,12,40,22.00
2013,07,26,12,41,22.20
2013,07,26,12,42,22.40
2013,07,26,12,43,22.50
2013,07,26,12,44,22.60
2013,07,26,12,45,22.80
2013,07,26,12,46,22.90
2013,07,26,12,47,22.90
2013,07,26,12,48,23.10
2013,07,26,12,49,23.20
2013,07,26,12,50,23.30
2013,07,26,12,51,23.40
2013,07,26,12,52,23.40
2013,07,26,12,53,23.40
2013,07,26,12,54,23.40
2013,07,26,12,55,23.40
2013,07,26,12,56,23.50
2013,07,26,12,57,23.60
2013,07,26,12,58,23.70
2013,07,26,12,59,23.80
2013,07,26,13,00,23.80
2013,07,26,13,01,23.90
2013,07,26,13,02,23.90
2013,07,26,13,03,23.90
2013,07,26,13,04,24.00
2013,07,26,13,05,23.90
2013,07,26,13,06,23.90
2013,07,26,13,07,23.90
2013,07,26,13,08,24.00
2013,07,26,13,09,23.90
2013,07,26,13,10,23.90
2013,07,26,13,11,24.00
2013,07,26,13,12,24.10
2013,07,26,13,13,24.10
2013,07,26,13,14,24.00
2013,07,26,13,15,24.00
2013,07,26,13,16,24.00
2013,07,26,13,17,24.10
2013,07,26,13,18,24.00
2013,07,26,13,19,24.00
2013,07,26,13,20,24.00
2013,07,26,13,21,24.00
2013,07,26,13,22,24.10
2013,07,26,13,23,24.20
2013,07,26,13,24,24.20
2013,07,26,13,25,24.30
2013,07,26,13,26,24.30
2013,07,26,13,27,24.40
2013,07,26,13,28,24.40
2013,07,26,13,29,24.40
2013,07,26,13,30,24.40
2013,07,26,13,31,24.40
2013,07,26,13,32,24.40
2013,07,26,13,33,24.40
2013,07,26,13,34,24.40
2013,07,26,13,35,24.40
2013,07,26,13,36,24.40
2013,07,26,13,37,24.50
2013,07,26,13,38,24.50
2013,07,26,13,39,24.60
2013,07,26,13,40,24.60
2013,07,26,13,41,24.50
2013,07,26,13,42,24.40
2013,07,26,13,43,24.20
2013,07,26,13,44,24.20
2013,07,26,13,45,24.20
2013,07,26,13,46,24.20
2013,07,26,13,47,24.30
2013,07,26,13,48,24.50
2013,07,26,13,49,24.60
2013,07,26,13,50,24.70
2013,07,26,13,51,24.80
2013,07,26,13,52,24.80
2013,07,26,13,53,24.90
2013,07,26,13,54,24.90
2013,07,26,13,55,24.90
2013,07,26,13,56,24.90
2013,07,26,13,57,24.90
2013,07,26,13,58,25.00
2013,07,26,13,59,25.10
2013,07,26,14,00,25.20
2013,07,26,14,01,25.30
2013,07,26,14,02,25.40
2013,07,26,14,03,25.50
2013,07,26,14,04,25.60
2013,07,26,14,05,25.60
2013,07,26,14,06,25.60
2013,07,26,14,07,25.60
2013,07,26,14,08,25.70
2013,07,26,14,09,25.70
2013,07,26,14,10,25.80
2013,07,26,14,11,25.90
2013,07,26,14,12,25.90
2013,07,26,14,13,25.90
2013,07,26,14,14,25.90
2013,07,26,14,15,25.90
2013,07,26,14,16,25.90
2013,07,26,14,17,25.80
2013,07,26,14,18,25.80
2013,07,26,14,19,25.80
2013,07,26,14,20,25.70
2013,07,26,14,21,25.70
2013,07,26,14,22,25.60
2013,07,26,14,23,25.60
2013,07,26,14,24,25.60
2013,07,26,14,25,25.60
2013,07,26,14,26,25.70
2013,07,26,14,27,25.70
2013,07,26,14,28,25.70
2013,07,26,14,29,25.80
2013,07,26,14,30,25.80
2013,07,26,14,31,25.90
2013,07,26,14,32,25.90
2013,07,26,14,33,25.90
2013,07,26,14,34,25.90
2013,07,26,14,35,26.00
2013,07,26,14,36,26.00
2013,07,26,14,37,26.10
2013,07,26,14,38,26.20
2013,07,26,14,39,26.30
2013,07,26,14,40,26.30
2013,07,26,14,41,26.40
2013,07,26,14,42,26.30
2013,07,26,14,43,26.30
2013,07,26,14,44,26.30
2013,07,26,14,45,26.40
2013,07,26,14,46,26.40
2013,07,26,14,47,26.40
2013,07,26,14,48,26.40
2013,07,26,14,49,26.40
2013,07,26,14,50,26.40
2013,07,26,14,51,26.40
2013,07,26,14,52,26.30
2013,07,26,14,53,26.30
2013,07,26,14,54,26.30
2013,07,26,14,55,26.20
2013,07,26,14,56,26.10
2013,07,26,14,57,26.10
2013,07,26,14,58,26.10
2013,07,26,14,59,26.10
2013,07,26,15,00,26.00
2013,07,26,15,01,26.00
2013,07,26,15,02,26.00
2013,07,26,15,03,25.90
2013,07,26,15,04,25.90
2013,07,26,15,05,25.90
2013,07,26,15,06,25.90
2013,07,26,15,07,26.00
2013,07,26,15,08,26.00
2013,07,26,15,09,26.10
2013,07,26,15,10,26.30
2013,07,26,15,11,26.40
2013,07,26,15,12,26.50
2013,07,26,15,13,26.60
2013,07,26,15,14,26.60
2013,07,26,15,15,26.70
2013,07,26,15,16,26.80
2013,07,26,15,17,26.90
2013,07,26,15,18,26.90
2013,07,26,15,19,26.80
2013,07,26,15,20,26.80
2013,07,26,15,21,26.80
2013,07,26,15,22,26.90
2013,07,26,15,23,26.90
2013,07,26,15,24,27.00
2013,07,26,15,25,27.10
2013,07,26,15,26,27.10
2013,07,26,15,27,27.10
2013,07,26,15,28,27.10
2013,07,26,15,29,27.20
2013,07,26,15,30,27.20
2013,07,26,15,31,27.30
2013,07,26,15,32,27.40
2013,07,26,15,33,27.50
2013,07,26,15,34,27.60
2013,07,26,15,35,27.60
2013,07,26,15,36,27.70
2013,07,26,15,37,27.70
2013,07,26,15,38,27.70
2013,07,26,15,39,27.60
2013,07,26,15,40,27.60
2013,07,26,15,41,27.60
2013,07,26,15,42,27.60
2013,07,26,15,43,27.60
2013,07,26,15,44,27.70
2013,07,26,15,45,27.70
2013,07,26,15,46,27.70
2013,07,26,15,47,27.70
2013,07,26,15,48,27.70
2013,07,26,15,49,27.60
2013,07,26,15,50,27.60
2013,07,26,15,51,27.60
2013,07,26,15,52,27.50
2013,07,26,15,53,27.40
2013,07,26,15,54,27.40
2013,07,26,15,55,27.30
2013,07,26,15,56,27.20
2013,07,26,15,57,27.10
2013,07,26,15,58,27.00
2013,07,26,15,59,27.00
2013,07,26,16,00,27.00
2013,07,26,16,01,27.00
2013,07,26,16,02,27.00
2013,07,26,16,03,27.10
2013,07,26,16,04,27.10
2013,07,26,16,05,27.10
2013,07,26,16,06,27.10
2013,07,26,16,07,27.00
2013,07,26,16,08,27.00
2013,07,26,16,09,26.80
2013,07,26,16,10,26.70
2013,07,26,16,11,26.50
2013,07,26,16,12,26.40
2013,07,26,16,13,26.40
2013,07,26,16,14,26.30
2013,07,26,16,15,26.20
2013,07,26,16,16,26.10
2013,07,26,16,17,26.10
2013,07,26,16,18,26.00
2013,07,26,16,19,26.00
2013,07,26,16,20,25.90
2013,07,26,16,21,25.90
2013,07,26,16,22,25.90
2013,07,26,16,23,25.90
2013,07,26,16,24,25.80
2013,07,26,16,25,25.80
2013,07,26,16,26,25.90
2013,07,26,16,27,25.90
2013,07,26,16,28,25.80
2013,07,26,16,29,25.80
2013,07,26,16,30,25.80
2013,07,26,16,31,25.80
2013,07,26,16,32,25.80
2013,07,26,16,33,25.70
2013,07,26,16,34,25.50
2013,07,26,16,35,25.40
2013,07,26,16,36,25.30
2013,07,26,16,37,25.20
2013,07,26,16,38,25.20
2013,07,26,16,39,25.20
2013,07,26,16,40,25.20
2013,07,26,16,41,25.20
2013,07,26,16,42,25.20
2013,07,26,16,43,25.10
2013,07,26,16,44,25.00
2013,07,26,16,45,24.90
2013,07,26,16,46,24.90
2013,07,26,16,47,24.80
2013,07,26,16,48,24.80
2013,07,26,16,49,24.90
2013,07,26,16,50,24.90
2013,07,26,16,51,24.90
2013,07,26,16,52,24.90
2013,07,26,16,53,24.90
2013,07,26,16,54,24.90
2013,07,26,16,55,24.90
2013,07,26,16,56,24.80
2013,07,26,16,57,24.80
2013,07,26,16,58,24.80
2013,07,26,16,59,24.80
2013,07,26,17,00,24.80
2013,07,26,17,01,24.70
2013,07,26,17,02,24.70
2013,07,26,17,03,24.70
2013,07,26,17,04,24.70
2013,07,26,17,05,24.70
2013,07,26,17,06,24.70
2013,07,26,17,07,24.70
2013,07,26,17,08,24.70
2013,07,26,17,09,24.70
2013,07,26,17,10,24.80
2013,07,26,17,11,24.80
2013,07,26,17,12,24.80
2013,07,26,17,13,24.80
2013,07,26,17,14,24.80
2013,07,26,17,15,24.80
2013,07,26,17,16,24.80
2013,07,26,17,17,24.80
2013,07,26,17,18,24.90
2013,07,26,17,19,24.90